Regional Weather Roundup
Issued by NWS

Home | Current Version | Previous Version | Graphics & Text | Print | Product List | Glossary On
Versions: 1 2 3 4 5 6 7 8 9 10 11 12 13 14 15 16 17 18 19 20 21 22 23 24 25 26 27 28
000
ASUS45 KPSR 261310
RWRAZ

ARIZONA HOURLY REGIONAL WEATHER ROUNDUP
NATIONAL WEATHER SERVICE PHOENIX AZ
600 AM MST TUE JUL 26 2016

NOTE: FAIR INDICATES FEW OR NO CLOUDS BELOW 12,000 FEET WITH NO
SIGNIFICANT WEATHER AND/OR OBSTRUCTIONS TO VISIBILITY.

AZZ001>003-036-261400-
NORTHWEST ARIZONA

CITY           SKY/WX    TMP DP  RH WIND       PRES   REMARKS
BULLHEAD CITY  CLEAR     90  55  31 E5        29.82R
KINGMAN        PTCLDY    77  50  38 SE9       30.05R
$$

AZZ004>008-015-016-018-261400-
NORTH CENTRAL ARIZONA

CITY           SKY/WX    TMP DP  RH WIND       PRES   REMARKS
GRAND CANYON   CLOUDY    64  46  52 NE3       30.32R
WILLIAMS       CLOUDY    63  52  67 SE8       30.39R
PRESCOTT       PTCLDY    64  56  75 S6        30.18R
FLAGSTAFF      CLOUDY    55  55 100 CALM      30.35R
PAYSON         PTCLDY    72  50  46 CALM      30.21R
PAGE           MOCLDY    80  45  28 CALM      30.11R
$$

AZZ009>014-017-261400-
NORTHEAST ARIZONA

CITY           SKY/WX    TMP DP  RH WIND       PRES   REMARKS
WINSLOW        MOCLDY    70  52  52 E7        30.21R
SAINT JOHNS    MOCLDY    68  54  60 NE5       30.25R
WINDOW ROCK    LGT RAIN  64  57  78 CALM      30.35R
SHOW LOW       CLEAR     57  50  77 CALM      30.32R
$$

AZZ023-261400-
GREATER PHOENIX AREA

CITY           SKY/WX    TMP DP  RH WIND       PRES   REMARKS
PHOENIX        MOCLDY    91  57  31 VRB3      29.85R
BUCKEYE        CLEAR     82  59  44 CALM      29.86R
GLENDALE       MOCLDY    90  57  33 CALM      29.86
LUKE AFB       CLEAR     87  60  40 MISG        N/A
DEER VALLEY    PTCLDY    87  52  29 CALM      29.87R
SCOTTSDALE     PTCLDY    88  56  33 CALM      29.89R
MESA-FALCON    PTCLDY   N/A N/A N/A N6        29.85R
MESA-GATEWAY     N/A     84  59  42 SE6       29.88R
CHANDLER       CLEAR     88  59  37 VRB6      29.87
$$

AZZ027-028-261400-
SOUTHWEST MARICOPA COUNTY AND PINAL COUNTY

CITY           SKY/WX    TMP DP  RH WIND       PRES   REMARKS
CASA GRANDE    CLEAR     84  57  39 CALM      29.91R
GILA BEND      FAIR      87  59  37 SE7       29.84R
$$

AZZ503-504-507>509-261400-
SOUTHEAST ARIZONA

CITY           SKY/WX    TMP DP  RH WIND       PRES   REMARKS
TUCSON         PTCLDY    83  58  42 SE7       30.00R
DAVIS-MONTHAN  CLEAR     80  59  48 S5        29.98R
RYAN FIELD     CLEAR     79  57  47 W5        29.98
NOGALES        PTCLDY    73  63  70 S13       30.11R
SIERRA VISTA   MOCLDY    73  56  56 NE5       30.15R
DOUGLAS        CLOUDY    73  66  78 S10       30.13R
SAFFORD        MOCLDY    81  59  47 S8        30.02R
$$

AZZ020-021-025-026-031-261400-
SOUTHWEST ARIZONA

CITY           SKY/WX    TMP DP  RH WIND       PRES   REMARKS
YUMA           PTCLDY    85  72  65 S7        29.79R
$$

CAZ031-033-041-043-047-048-061-261400-
SOUTHERN CALIFORNIA

CITY           SKY/WX    TMP DP  RH WIND       PRES   REMARKS
DOWNTOWN L.A.  PTCLDY    69  64  84 W3        29.89S
L.A. AIRPORT   MOCLDY    66  64  94 W7        29.90S FOG
SAN DIEGO      MOCLDY    68  67  96 NW3       29.89R
BURBANK        PTCLDY    73  53  49 NW3       29.90S
ONTARIO        PTCLDY    72  60  66 CALM      29.91S
RIVERSIDE      CLEAR     73  60  63 CALM      29.91S
PALM SPRINGS   CLEAR     87  56  34 CALM      29.81F
EL CENTRO NAS  PTCLDY    86  64  47 E7        29.78R
IMPERIAL       PTCLDY    89  67  47 E8        29.76R
BLYTHE         PTCLDY    90  66  45 S6        29.79R
NEEDLES        PTCLDY    92  57  30 CALM      29.82R
$$

NVZ020-UTZ003-261400-
SOUTHERN NEVADA-UTAH

CITY           SKY/WX    TMP DP  RH WIND       PRES   REMARKS
LAS VEGAS      PTCLDY    88  52  29 SW5       29.88R
SALT LAKE CITY MOCLDY    79  42  26 SE12      30.04R
$$

NMZ009-TXZ055-261400-
NEW MEXICO-WEST TEXAS

CITY           SKY/WX    TMP DP  RH WIND       PRES   REMARKS
ALBUQUERQUE    MOCLDY    71  60  68 N7        30.28R
EL PASO        PTCLDY    76  61  59 N15       30.14R
$$


........................KEY........................
SKY/WX - SKY CONDITION/WEATHER
TMP    - TEMPERATURE IN FAHRENHEIT
DP     - DEW POINT IN FAHRENHEIT
RH     - RELATIVE HUMIDITY IN PERCENT
WIND   - DIRECTION AND SPEED IN MILES PER HOUR (MPH)
VRB    - VARIABLE WIND DIRECTION
PRES   - MEAN SEA LEVEL PRESSURE IN INCHES OF MERCURY
         F - FALLING PRESSURE   R - RISING PRESSURE
         S - STEADY PRESSURE
VSB    - VISIBILITY IN MILES
HX     - HEAT INDEX IN FAHRENHEIT
WCI    - WIND CHILL INDEX IN FAHRENHEIT
TC     - TEMPERATURE IN CELSIUS WHICH IS ALSO KNOWN AS
         TEMPERATURE IN CENTIGRADE
AFB    - AIR FORCE BASE
         LUKE AFB IS LUKE AIR FORCE BASE
         DAVIS-MONTHAN IS DAVIS-MONTHAN AIR FORCE BASE
NAS    - NAVAL AIR STATION
         EL CENTRO NAS IS EL CENTRO NAVAL AIR STATION
N/A    - NOT AVAILABLE





USA.gov is the U.S. government's official web portal to all federal, state and local government web resources and services.